Weather in Sumarokovo

Russia / Kostroma Oblast     58°12′24″N   41°47′47″E
temp.,
°C
wind,
m/s
gust,
m/s
humid.,
%
clouds,
%
prec.,
mm/h
press.,
hPa
HPBL,
m
6 december, mon
mon600:00−20ne231005 0.0 102436
03:00−20ne231005 0.0 102656
06:00−20ene24995 0.0 102671
09:00−19e269672 0.0 1028126
12:00−15e358441 0.0 1028218
15:00−15e359042 0.0 1028140
18:00−15ese399184 0.0 1029220
21:00−13ese398899 0.0 1029269
7 december, tue
tue700:00−12ese41093100 0.1 1028282
03:00−10ese41193100 0.1 1027307
06:00−9ese51393100 0.1 1025348
09:00−8ese61593100 0.1 1024444
12:00−5se71791100 0.1 1021741
15:00−4se81694100 2.8 1018925
18:00−3se71594100 1.9 1016838
21:00−3sse61495100 4.4 1015689
8 december, wed
wed800:00−2se51296100 2.4 1013540
03:00−1sse41198100 5.6 1012483
06:000s3999100 2.3 1012466
09:000sw3798100 2.8 1013456
12:000w3698100 0.1 1015475
15:00−7w239759 0.2 101850
18:00−12w129979 0.0 102026
21:00−16nw119862 0.0 102210
9 december, thu
thu900:00−16n1198100 0.0 102320
03:00−10nne2394100 0.1 1023111
06:00−9nne2496100 1.1 1022144
09:00−8n3596100 2.4 1023198
12:00−7n359497 0.5 1023251
15:00−10nnw37947 0.6 1024160
18:00−16n379846 0.0 102693
21:00−18n259967 0.0 102767
10 december, fri
fri1000:00−18nne269955 0.0 102884
03:00−18nne269842 0.0 102991
06:00−18nne269854 0.0 102985
09:00−18nne269883 0.0 103095
12:00−13ne37946 0.0 1030171
15:00−13nne369664 0.0 1029135
18:00−14ne3796100 0.0 1030153
21:00−16nne259834 0.0 103067